GPS BIIF-7 (PRN 09)

Last updated on Wed Sep 17 2025 00:03:17 GMT+0000 (Coordinated Universal Time)

1 40105U 14045A 25258.83431754 .00000012 00000+0 00000+0 0 9992 2 40105 55.1713 99.4055 0032797 117.0351 243.3726 2.00567104 80574
UTC large
Height (km)
Speed (km/s)
/
Latitude / Longitude
Inclination (degrees)
Orbital Period (minutes)
Azimuth
Elevation
Range (km)
Doppler Factor

Next 0 passes for location: London (51.5072 / 0.1276)

Sorry there are no passes over London.